Station WEXM1 - Laudholm Farm, Wells Reserve, ME Image indicating link to RSS feed of recent meteorological observations for station WEXM1


Conditions at WEXM1 as of
(8:00 pm EDT on 07/18/2024)
0000 GMT on 07/19/2024:
     

Click on the graph icon in the table below to see a time series plot of the last five days of that observation.

5-day plot - Wind Direction Wind Direction (WDIR):WNW ( 290 deg true )
5-day plot - Wind Speed Wind Speed (WSPD): 2.9 kts
5-day plot - Air Temperature Air Temperature (ATMP): 78.3 °F
5-day plot - Dew Point Dew Point (DEWP): 59.5 °F
5-day plot - Heat Index Heat Index (HEAT): 79.5 °F
Previous observations
TIME
(EDT)
5-day plot - Wind Direction
WDIR
 
5-day plot - Wind Speed
WSPD
kts
5-day plot - Wind Gust
GST
kts
5-day plot - Wave Height
WVHT
ft
5-day plot - Dominant Wave Period
DPD
sec
5-day plot - Average Wave Period
APD
sec
5-day plot - Mean Wave Direction
MWD
 
5-day plot - Atmospheric Pressure
PRES
in
5-day plot - Pressure Tendency
PTDY
in
5-day plot - Air Temperature
ATMP
°F
5-day plot - Water Temperature
WTMP
°F
5-day plot - Dew Point
DEWP
°F
5-day plot - Salinity
SAL
psu
5-day plot - Visibility
VIS
nmi
5-day plot - Tide (above MLLW)
TIDE
ft
2024-07-18 07:45 pmWNW 1.9------- 79.2- 59.9---
2024-07-18 07:30 pmWNW 4.1------- 80.4- 59.4---
2024-07-18 07:15 pmWNW 2.9------- 81.7- 58.8---
2024-07-18 07:00 pm W 1.9------- 82.6- 57.7---
2024-07-18 06:45 pm W 4.1------- 83.7- 58.1---
2024-07-18 06:30 pm NW 2.9------- 83.5- 62.8---
2024-07-18 06:15 pm NW 4.1------- 83.7- 62.4---
2024-07-18 06:00 pm NW 4.1------- 82.4- 63.0---
2024-07-18 05:45 pm NW 2.9------- 81.7- 62.8---
2024-07-18 05:30 pmNNW 2.9------- 83.3- 63.1---
2024-07-18 05:15 pm NW 4.1------- 84.0- 61.5---
2024-07-18 05:00 pmNNW 4.1------- 85.3- 60.8---
2024-07-18 04:45 pm NW 4.1------- 84.9- 59.9---
2024-07-18 04:30 pm W 4.1------- 86.7- 58.6---
2024-07-18 04:15 pmWSW 4.1------- 87.6- 58.1---
2024-07-18 04:00 pmWSW 5.1------- 88.2- 57.7---
2024-07-18 03:45 pm W 2.9------- 88.3- 57.2---
2024-07-18 03:30 pm W 5.1------- 87.3- 56.1---
2024-07-18 03:15 pm W 4.1------- 87.6- 55.8---
2024-07-18 03:00 pm W 5.1------- 87.3- 56.1---
2024-07-18 02:45 pm W 5.1------- 87.1- 57.6---
2024-07-18 02:30 pm W 5.1------- 87.4- 59.4---
2024-07-18 02:15 pmSSE 2.9------- 83.1- 66.2---
2024-07-18 02:00 pm SE 2.9------- 84.0- 69.4---
2024-07-18 01:45 pmSSE 1.9------- 83.3- 69.3---
2024-07-18 01:30 pmSSE 1.9------- 84.0- 69.1---
2024-07-18 01:15 pm S 2.9------- 84.7- 67.8---
2024-07-18 01:00 pm S 1.9------- 83.1- 68.2---
2024-07-18 12:45 pmESE 2.9------- 81.5- 70.2---
2024-07-18 12:30 pm E 1.9------- 81.7- 68.7---
2024-07-18 12:15 pmWNW 1.9------- 83.7- 68.2---
2024-07-18 12:00 pm NW 4.1------- 82.4- 68.4---
2024-07-18 11:45 amNNW 5.1------- 82.8- 68.4---
2024-07-18 11:30 amNNW 4.1------- 82.6- 68.5---
2024-07-18 11:15 amNNW 2.9------- 81.5- 68.5---
2024-07-18 11:00 amNNW 4.1------- 80.6- 68.0---
2024-07-18 10:45 am NW 5.1------- 80.2- 69.8---
2024-07-18 10:30 am NW 4.1------- 79.5- 70.7---
2024-07-18 10:15 amNNW 4.1------- 78.8- 72.3---
2024-07-18 10:00 am NW 5.1------- 78.4- 73.4---
2024-07-18 09:45 am NW 4.1------- 78.1- 73.9---
2024-07-18 09:30 amWNW 2.9------- 77.9- 74.1---
2024-07-18 09:15 am W 2.9------- 77.7- 74.7---
2024-07-18 09:00 am W 1.9------- 76.3- 74.5---
2024-07-18 08:45 am W 1.9------- 75.2- 74.3---
2024-07-18 08:30 amWSW 2.9------- 73.9- 73.6---
2024-07-18 08:15 amWSW 1.0------- 71.8- 71.8---
2024-07-18 08:00 am- 0.0------- 71.4- 71.4---
2024-07-18 07:45 am- 0.0------- 69.6- 69.6---
2024-07-18 07:30 am- 0.0------- 67.5- 67.5---
2024-07-18 07:15 am S 1.9------- 66.7- 66.7---
2024-07-18 07:00 am S 1.0------- 67.1- 67.1---
2024-07-18 06:45 am S 1.9------- 66.7- 66.7---
2024-07-18 06:30 am S 1.9------- 67.6- 67.6---
2024-07-18 06:15 am- 0.0------- 68.0- 68.0---
2024-07-18 06:00 am- 0.0------- 68.2- 68.2---
2024-07-18 05:45 am- 0.0------- 67.5- 67.5---
2024-07-18 05:30 am- 0.0------- 66.6- 66.6---
2024-07-18 05:15 am- 0.0------- 66.0- 66.0---
2024-07-18 05:00 am- 0.0------- 65.5- 65.5---
2024-07-18 04:45 am SW 1.0------- 64.0- 64.0---
2024-07-18 04:30 am S 1.0------- 63.7- 63.7---
2024-07-18 04:15 am SE 1.9------- 65.3- 65.3---
2024-07-18 04:00 am SE 1.0------- 69.1- 69.1---
2024-07-18 03:45 amWSW 1.9------- 66.7- 66.7---
2024-07-18 03:30 amNNW 1.0------- 65.1- 65.1---
2024-07-18 03:15 am- 0.0------- 66.7- 66.7---
2024-07-18 03:00 am S 1.9------- 66.7- 66.7---
2024-07-18 02:45 am S 1.9------- 66.9- 66.9---
2024-07-18 02:30 am S 1.9------- 68.2- 68.2---
2024-07-18 02:15 am S 1.9------- 67.8- 67.8---
2024-07-18 02:00 am S 1.9------- 67.8- 67.8---
2024-07-18 01:45 am S 1.0------- 69.1- 69.1---
2024-07-18 01:30 am S 1.0------- 69.4- 69.4---
2024-07-18 01:15 am- 0.0------- 68.9- 68.5---
2024-07-18 01:00 am S 1.0------- 69.3- 68.9---
2024-07-18 12:45 am S 1.0------- 68.7- 68.4---
2024-07-18 12:30 am- 0.0------- 67.6- 67.3---
2024-07-18 12:15 am- 0.0------- 67.6- 67.3---
2024-07-18 12:00 am NE 1.0------- 68.4- 67.8---
2024-07-17 11:45 pm- 0.0------- 68.2- 67.6---
2024-07-17 11:30 pm S 1.9------- 68.7- 68.2---
2024-07-17 11:15 pm S 1.0------- 70.3- 69.8---
2024-07-17 11:00 pm- 0.0------- 71.2- 70.7---
2024-07-17 10:45 pm- 0.0------- 71.6- 71.1---
2024-07-17 10:30 pm- 0.0------- 73.4- 72.9---
2024-07-17 10:15 pm W 1.0------- 73.6- 73.0---
2024-07-17 10:00 pm W 1.9------- 73.4- 72.9---
2024-07-17 09:45 pmWNW 1.9------- 71.8- 71.2---
2024-07-17 09:30 pm- 0.0------- 69.4- 68.5---
2024-07-17 09:15 pmWNW 1.0------- 71.2- 70.3---
2024-07-17 09:00 pm SW 1.9------- 70.7- 69.4---
2024-07-17 08:45 pm- 0.0------- 69.6- 67.8---
2024-07-17 08:30 pm- 0.0------- 70.3- 68.0---
2024-07-17 08:15 pm- 0.0------- 71.6- 68.0---
2024-07-17 08:00 pm- 0.0------- 71.8- 67.1---